Date String (YYYY-MM-DD hh:mm:ss) UTC,Instrument flags,absolute air pressure of the measurement (hPa),sample flow rate (lpm),inlet stack bypass flow (lpm),air temperature of the measurement (°C),ambient temperature measured by the external sensor (°C),aerosol sample conditioner tube jacket temperature (°C),OPC LED temperature (°C),internal box temperature (°C),relative humidity of the measurement (%),span deviation,mass concentration of particles derived from Lorenz-Mie calculation of OPC scattering (μg/m³),mass concentration of particles derived from Lorenz-Mie calculation of OPC scattering (μg/m³),mass concentration of particles derived from Lorenz-Mie calculation of OPC scattering (μg/m³)
DateTimeUTC,F1_M11,P_M11,Q1_M11,Q2_M11,T1_M11,T2_M11,T3_M11,T4_M11,T5_M11,U1_M11,ZSPAN_M11,X2_M11,X0_M11,X1_M11
2023-11-15 22:00:00,SystemResetWarning,0830.1,5.00,000.00,028.0,027.3,000.0,036.1,029.6,6.9,0000.0,0002.97,0007.69,0001.91
2023-11-15 22:01:00,SystemResetWarning,0830.0,5.00,000.00,028.1,027.3,000.0,036.1,029.7,6.9,0000.0,0003.03,0007.77,0001.92
2023-11-15 22:02:00,SystemResetWarning,0830.1,5.00,000.00,028.1,027.4,000.0,036.1,029.7,6.9,0000.0,0003.06,0008.19,0001.92
2023-11-15 22:03:00,SystemResetWarning,0830.0,5.00,000.00,028.2,027.4,000.0,036.2,029.7,6.9,0000.0,0003.01,0008.30,0001.92
2023-11-15 22:04:00,SystemResetWarning,0830.1,5.01,000.00,028.2,027.5,000.0,036.2,029.8,6.8,0000.0,0002.97,0008.34,0001.91
2023-11-15 22:05:00,SystemResetWarning,0830.1,5.00,000.00,028.2,027.5,000.0,036.2,029.8,6.7,0000.0,0003.00,0008.46,0001.92
2023-11-15 22:06:00,SystemResetWarning,0830.1,4.99,000.00,028.3,027.1,000.0,036.3,029.8,6.8,0000.0,0002.99,0008.33,0001.91
2023-11-15 22:07:00,SystemResetWarning,0830.1,4.99,000.00,028.2,024.8,000.0,036.2,029.5,6.7,0000.0,0002.96,0008.14,0001.90
2023-11-15 22:08:00,SystemResetWarning,0830.1,5.02,000.00,028.0,023.5,000.0,036.2,029.2,6.8,0000.0,0002.99,0007.87,0001.90
2023-11-15 22:09:00,SystemResetWarning,0830.1,5.01,000.00,027.9,023.6,000.0,036.1,028.9,6.9,0000.0,0002.95,0008.46,0001.89
2023-11-15 22:10:00,SystemResetWarning,0830.0,5.00,000.00,027.7,024.1,000.0,036.1,028.6,6.9,0000.0,0002.94,0009.09,0001.87
2023-11-15 22:11:00,SystemResetWarning,0830.0,5.00,000.00,027.6,024.6,000.0,036.0,028.6,6.9,0000.0,0002.98,0009.00,0001.86
2023-11-15 22:12:00,SystemResetWarning,0830.0,5.00,000.00,027.6,025.0,000.0,036.0,028.8,6.9,0000.0,0003.00,0009.13,0001.85
2023-11-15 22:13:00,SystemResetWarning,0830.0,5.00,000.00,027.6,025.4,000.0,036.0,028.9,6.9,0000.0,0002.99,0008.65,0001.85
2023-11-15 22:14:00,SystemResetWarning,0830.0,5.00,000.00,027.6,025.7,000.0,036.0,029.0,7.0,0000.0,0003.03,0008.55,0001.85
2023-11-15 22:15:00,SystemResetWarning,0830.0,5.00,000.00,027.7,026.0,000.0,035.9,029.1,6.9,0000.0,0003.02,0008.51,0001.85
2023-11-15 22:16:00,SystemResetWarning,0830.0,5.00,000.00,027.7,026.2,000.0,035.9,029.2,6.9,0000.0,0003.02,0008.43,0001.85
2023-11-15 22:17:00,SystemResetWarning,0830.0,5.00,000.00,027.7,026.4,000.0,035.9,029.3,6.9,0000.0,0003.01,0009.31,0001.85
2023-11-15 22:18:00,SystemResetWarning,0830.0,4.99,000.00,027.8,026.6,000.0,036.0,029.3,6.8,0000.0,0003.01,0010.22,0001.85
2023-11-15 22:19:00,SystemResetWarning,0830.0,4.99,000.00,027.8,026.7,000.0,036.0,029.4,6.8,0000.0,0002.96,0010.90,0001.84
2023-11-15 22:20:00,SystemResetWarning,0830.0,5.00,000.00,027.9,026.9,000.0,036.0,029.4,6.7,0000.0,0002.94,0010.48,0001.84
2023-11-15 22:21:00,SystemResetWarning,0830.0,5.00,000.00,027.9,027.0,000.0,036.0,029.5,6.7,0000.0,0002.96,0009.90,0001.84
2023-11-15 22:22:00,SystemResetWarning,0830.0,5.00,000.00,027.9,027.1,000.0,036.0,029.5,6.7,0000.0,0003.06,0010.77,0001.85
2023-11-15 22:23:00,SystemResetWarning,0830.0,5.00,000.00,028.0,027.2,000.0,036.1,029.6,6.7,0000.0,0003.11,0011.37,0001.86
2023-11-15 22:24:00,SystemResetWarning,0830.0,5.01,000.00,028.0,027.3,000.0,036.1,029.7,6.6,0000.0,0003.10,0012.13,0001.85
2023-11-15 22:25:00,SystemResetWarning,0830.0,5.01,000.00,028.1,027.3,000.0,036.1,029.7,6.6,0000.0,0003.10,0012.09,0001.87
2023-11-15 22:26:00,SystemResetWarning,0829.9,5.00,000.00,028.1,027.4,000.0,036.2,029.8,6.7,0000.0,0003.02,0011.96,0001.86
2023-11-15 22:27:00,SystemResetWarning,0829.9,5.00,000.00,028.2,027.5,000.0,036.2,029.8,6.6,0000.0,0002.97,0013.02,0001.85
2023-11-15 22:28:00,SystemResetWarning,0829.8,4.99,000.00,028.2,026.8,000.0,036.2,029.8,6.5,0000.0,0003.02,0013.22,0001.87
2023-11-15 22:29:00,SystemResetWarning,0829.8,5.00,000.00,028.1,024.5,000.0,036.2,029.4,6.6,0000.0,0003.04,0013.43,0001.86
2023-11-15 22:30:00,SystemResetWarning,0829.8,5.01,000.00,028.0,023.4,000.0,036.1,029.1,6.6,0000.0,0003.04,0012.54,0001.85
2023-11-15 22:31:00,SystemResetWarning,0829.8,5.01,000.00,027.8,023.5,000.0,036.1,028.7,6.6,0000.0,0003.09,0012.53,0001.85
2023-11-15 22:32:00,SystemResetWarning,0829.8,5.00,000.00,027.6,024.0,000.0,036.0,028.5,6.7,0000.0,0003.07,0012.63,0001.85
2023-11-15 22:33:00,SystemResetWarning,0829.9,5.00,000.00,027.5,024.5,000.0,036.0,028.6,6.7,0000.0,0003.00,0012.15,0001.86
2023-11-15 22:34:00,SystemResetWarning,0829.9,5.00,000.00,027.5,024.9,000.0,035.9,028.7,6.7,0000.0,0002.95,0012.09,0001.86
2023-11-15 22:35:00,SystemResetWarning,0830.0,5.00,000.00,027.5,025.3,000.0,035.9,028.8,6.6,0000.0,0002.94,0011.17,0001.88
2023-11-15 22:36:00,SystemResetWarning,0830.1,5.00,000.00,027.5,025.6,000.0,035.9,028.9,6.6,0000.0,0002.92,0011.32,0001.87
2023-11-15 22:37:00,SystemResetWarning,0830.0,5.00,000.00,027.6,025.9,000.0,035.9,029.0,6.6,0000.0,0003.00,0011.40,0001.88
2023-11-15 22:38:00,SystemResetWarning,0830.0,5.00,000.00,027.6,026.2,000.0,035.9,029.1,6.6,0000.0,0003.05,0010.53,0001.89
2023-11-15 22:39:00,SystemResetWarning,0830.0,5.00,000.00,027.6,026.3,000.0,035.9,029.2,6.6,0000.0,0003.01,0009.74,0001.88
2023-11-15 22:40:00,SystemResetWarning,0830.0,5.00,000.00,027.7,026.5,000.0,035.9,029.2,6.6,0000.0,0003.01,0009.42,0001.89
2023-11-15 22:41:00,SystemResetWarning,0830.0,5.00,000.00,027.7,026.6,000.0,035.9,029.3,6.6,0000.0,0003.03,0010.41,0001.90
2023-11-15 22:42:00,SystemResetWarning,0830.0,5.00,000.00,027.7,026.8,000.0,035.9,029.3,6.5,0000.0,0003.02,0011.93,0001.91
2023-11-15 22:43:00,SystemResetWarning,0830.0,5.00,000.00,027.8,026.9,000.0,035.9,029.4,6.5,0000.0,0003.03,0012.69,0001.92
2023-11-15 22:44:00,SystemResetWarning,0830.0,4.99,000.00,027.8,027.0,000.0,036.0,029.4,6.4,0000.0,0002.97,0012.46,0001.90
2023-11-15 22:45:00,SystemResetWarning,0830.0,5.00,000.00,027.9,027.0,000.0,036.0,029.5,6.4,0000.0,0002.87,0011.90,0001.90
2023-11-15 22:46:00,SystemResetWarning,0830.0,4.99,000.00,027.9,027.1,000.0,036.0,029.5,6.4,0000.0,0002.87,0011.94,0001.88
2023-11-15 22:47:00,SystemResetWarning,0830.0,4.99,000.00,028.0,027.2,000.0,036.0,029.6,6.4,0000.0,0002.96,0011.78,0001.88
2023-11-15 22:48:00,SystemResetWarning,0830.0,5.00,000.00,028.0,027.2,000.0,036.1,029.6,6.4,0000.0,0002.95,0011.78,0001.87
2023-11-15 22:49:00,SystemResetWarning,0829.9,5.00,000.00,028.0,027.3,000.0,036.1,029.6,6.4,0000.0,0002.88,0011.62,0001.85
2023-11-15 22:50:00,SystemResetWarning,0830.0,5.00,000.00,028.1,027.3,000.0,036.1,029.7,6.3,0000.0,0002.93,0012.27,0001.86
2023-11-15 22:51:00,SystemResetWarning,0830.0,5.01,000.00,028.1,027.4,000.0,036.2,029.7,6.4,0000.0,0002.95,0012.24,0001.85
2023-11-15 22:52:00,SystemResetWarning,0830.0,5.00,000.00,028.2,027.4,000.0,036.2,029.7,6.4,0000.0,0002.93,0011.29,0001.85
2023-11-15 22:53:00,SystemResetWarning,0830.0,5.00,000.00,028.2,027.5,000.0,036.2,029.8,6.4,0000.0,0002.91,0010.26,0001.84
2023-11-15 22:54:00,SystemResetWarning,0830.0,5.01,000.00,028.2,027.5,000.0,036.3,029.8,6.3,0000.0,0002.86,0009.27,0001.83
2023-11-15 22:55:00,SystemResetWarning,0830.0,5.00,000.00,028.3,027.6,000.0,036.3,029.8,6.3,0000.0,0002.91,0009.59,0001.83
2023-11-15 22:56:00,SystemResetWarning,0830.0,5.00,000.00,028.3,027.6,000.0,036.3,029.9,6.3,0000.0,0002.98,0010.64,0001.83
2023-11-15 22:57:00,SystemResetWarning,0830.0,4.99,000.00,028.3,027.4,000.0,036.3,029.9,6.2,0000.0,0003.00,0011.30,0001.84
2023-11-15 22:58:00,SystemResetWarning,0830.0,4.99,000.00,028.3,025.3,000.0,036.3,029.6,6.3,0000.0,0002.95,0011.92,0001.84
2023-11-15 22:59:00,SystemResetWarning,0830.0,5.01,000.00,028.1,023.4,000.0,036.3,029.2,6.3,0000.0,0002.91,0012.12,0001.84
